     2              OBSERVATION DATA    GPS                 RINEX VERSION / TYPE
teqc 1997Jul24 19970902 21:05:32UTC                         PGM / RUN BY / DATE
                                                            COMMENT
BIT 2 OF LLI FLAGS DATA COLLECTED UNDER A-S CONDITION       COMMENT
BIT 2 OF LLI FLAGS DATA COLLECTED UNDER A-S CONDITION       COMMENT
Original Marker Name: MONU.55474                            COMMENT
Campaign Name: Salt. Tr. Crust. Monit. May-Jun 1986         COMMENT
4-Character Station Name: MONU                              COMMENT
6-Character Antenna Code: TI4100                            COMMENT
Vertical Measurement Point: PAE                             COMMENT
Vertical Offset to Rinex Ref. Point: 0.0000                 COMMENT
Radial Measurement Point: RRP                               COMMENT
Radial Offset to Rinex Ref. Point: 0.0000                   COMMENT
Antenna Height from Field Measurement: 1.4830 m             COMMENT
Original XYZ: -2043395.4771 -3948499.8680 2809572.0095      COMMENT
New XYZ position is based on association with SCEC monument COMMENT
E1C8W5H0+0011. Position of that monument is believed to be  COMMENT
valid to within 1 m horizontally; vertical accuracy         COMMENT
should be no worse than 3-times this value.                 COMMENT
                                                            COMMENT
Revised Rinex header created by UCSD GPS archive for        COMMENT
GSAC on 10-Apr-1999 (1999:100) 06:28:56 GMT                 COMMENT
For assistance contact dagnew@ucsd.edu or hjohnson@ucsd.edu COMMENT
                                                            COMMENT
MONUMENT PEAK NCMN 1983                                     MARKER NAME
05 NATIONAL GEODETIC SURVEY                                 OBSERVER / AGENCY
UT-33 TI 4100 1.0                                           REC # / TYPE / VERS
4091 TI 4100                                                ANT # / TYPE
 -2386290.0000 -4802346.0000  3444884.0000                  APPROX POSITION XYZ
        1.4830        0.0000        0.0000                  ANTENNA: DELTA H/E/N
     1     1     0                                          WAVELENGTH FACT L1/2
     4    P1    P2    L1    L2                              # / TYPES OF OBSERV
     6                                                      INTERVAL
  1986     6    18     4    12   23.000000                  TIME OF FIRST OBS
  1986     6    18     4    31   59.000000                  TIME OF LAST OBS
     0                                                      # OF SATELLITES
                                                            END OF HEADER
 86  6 18  4 12 23.0800000  0  3G12G13G 7
  21588663.702    21588665.184    45196239.528 9 -61845820.258 7
  22167285.126    22167287.943    74093411.258 9 -83544108.206 9
  24631251.774    24631252.388    14869965.391 9 -38968245.824 8
 86  6 18  4 12 29.0800000  0  3G12G13G 7
  21591314.803    21591317.538    45210173.767 9 -61834962.412 8
  22169102.023    22169104.579    74102964.652 8 -83536664.005 9
  24630473.732    24630475.586    14865874.689 9 -38971433.382 9
 86  6 18  4 12 35.0800000  0  3G12G13G 7
  21593970.127    21593973.475    45224127.607 9 -61824089.292 8
  22170920.635    22170922.993    74112519.329 9 -83529218.814 9
  24629698.975    24629701.307    14861808.559 9 -38974601.793 9
 86  6 18  4 12 41.0800000  0  3G12G13G 7
  21596628.570    21596631.262    45238100.972 9 -61813200.947 7
  22172740.335    22172741.475    74122075.208 8 -83521772.672 8
  24628929.383    24628932.210    14857764.520 9 -38977752.992 8
 86  6 18  4 12 47.0800000  0  3G12G13G 7
  21599291.057    21599294.598    45252094.055 9 -61802297.249 8
  22174558.459    22174560.260    74131632.473 9 -83514325.452 7
  24628163.820    24628165.937    14853740.727 9 -38980888.412 9
 86  6 18  4 12 53.0800000  0  3G12G13G 7
  21601957.498    21601961.383    45266106.766 9 -61791378.255 9
  22176376.987    22176379.503    74141191.030 9 -83506877.226 9
  24627401.999    24627404.624    14849737.481 9 -38984007.811 9
 86  6 18  4 12 59.0800000  0  3G12G13G 7
  21604627.176    21604630.964    45280138.961 9 -61780444.075 8
  22178196.544    22178198.871    74150750.750 9 -83499428.103 9
  24626644.934    24626647.153    14845758.708 9 -38987108.156 9
 86  6 18  4 13  5.0800000  0  3G12G13G 7
  21607301.895    21607305.804    45294190.764 9 -61769494.627 8
  22180014.411    22180018.043    74160311.856 9 -83491977.879 8
                  24625895.504                   -38990183.883 9
 86  6 18  4 13 11.0800000  0  3G12G13G 7
  21609979.374    21609984.063    45308262.185 9 -61758529.886 9
  22181834.427    22181837.472    74169874.322 8 -83484526.614 9
  24625149.718    24625152.261    14805415.250 9 -38993230.854 9
 86  6 18  4 13 17.0800000  0  3G12G13G 7
  21612660.463    21612664.651    45322353.047 9 -61747550.006 9
  22183654.900    22183658.273    74179438.017 9 -83477074.402 8
  24624412.341    24624415.166    14801541.572 9 -38996249.296 9
 86  6 18  4 13 23.0800000  0  3G12G13G 7
  21615345.104    21615350.291    45336463.388 9 -61736554.931 8
  22185473.686    22185477.644    74189002.928 9 -83469621.220 9
  24623681.076    24623684.103    14797700.580 9 -38999242.273 9
 86  6 18  4 13 29.0800000  0  3G12G13G 7
  21618034.546    21618039.002    45350593.236 9 -61725544.651 9
  22187295.014    22187296.974    74198569.068 8 -83462167.085 8
  24622955.426    24622958.510    14793887.840 9 -39002213.239 9
 86  6 18  4 13 35.0800000  0  3G12G13G 7
  21620726.611    21620732.379    45364742.518 9 -61714519.240 9
  22189115.832    22189118.716    74208136.366 9 -83454712.046 9
  24622234.136    24622237.505    14790099.543 9 -39005165.155 9
 86  6 18  4 13 41.0800000  0  3G12G13G 7
  21623422.848    21623427.734    45378911.224 9 -61703478.703 8
  22190936.762    22190939.278    74217704.933 9 -83447256.018 8
  24621517.501    24621520.923    14786333.268 9 -39008099.909 8
 86  6 18  4 13 47.0800000  0  3G12G13G 7
  21626122.489    21626127.919    45393099.436 9 -61692422.953 9
  22192758.378    22192759.551    74227274.774 9 -83439798.999 7
  24620804.325    24620808.825    14782587.447 9 -39011018.727 9
 86  6 18  4 13 53.0800000  0  3G12G13G 7
  21628826.825    21628831.802    45407306.968 9 -61681352.146 9
  22194579.309    22194581.509    74236845.872 9 -83432341.006 7
  24620096.039    24620100.382    14778862.221 9 -39013921.501 9
 86  6 18  4 13 59.0800000  0  3G12G13G 7
  21631533.915    21631538.576    45421533.744 9 -61670266.352 9
  22196401.272    22196402.711    74246418.169 9 -83424882.077 8
                  24619395.208                   -39016804.911 8
 86  6 18  4 14  5.0800000  0  3G12G13G 7
  21634245.442    21634249.377    45435779.800 9 -61659165.535 8
  22198223.460    22198224.746    74255991.729 9 -83417422.148 8
  24618631.134    24618696.930    14738738.781 9 -39019663.632 8
 86  6 18  4 14 11.0800000  0  3G12G13G 7
  21636960.259    21636963.974    45450045.177 9 -61648049.646 9
  22200044.277    22200047.362    74265566.624 9 -83409961.192 8
  24618002.789    24618006.759    14735107.526 9 -39022493.065 8
 86  6 18  4 14 17.0800000  0  3G12G13G 7
  21639679.492    21639682.446    45464329.808 9 -61636918.774 8
  22201867.869    22201868.824    74275142.707 9 -83402499.313 8
  24617319.674    24617322.379    14731513.259 9 -39025294.179 8
 86  6 18  4 14 23.0800000  0  3G12G13G 7
  21642401.526    21642404.032    45478633.574 9 -61625772.976 8
  22203689.830    22203692.286    74284719.842 9 -83395036.616 8
  24616640.554    24616644.223    14727950.914 9 -39028070.029 9
 86  6 18  4 14 29.0800000  0  3G12G13G 7
  21645127.689    21645129.240    45492956.624 9 -61614612.160 9
  22205512.419    22205513.992    74294298.254 9 -83387572.899 8
  24615968.220    24615971.174    14724416.555 9 -39030824.075 9
 86  6 18  4 14 35.0800000  0  3G12G13G 7
  21647857.409    21647860.258    45507298.843 9 -61603436.405 8
  22207336.040    22207337.838    74303877.939 9 -83380108.213 8
  24615301.141    24615303.037    14720906.608 9 -39033559.098 8
 86  6 18  4 14 41.0800000  0  3G12G13G 7
  21650590.125    21650591.640    45521660.173 9 -61592245.751 8
  22209159.374    22209160.388    74313458.744 9 -83372642.648 7
  24614636.851    24614639.155    14717418.538 9 -39036277.068 9
 86  6 18  4 14 47.0800000  0  3G12G13G 7
  21653325.912    21653328.050    45536040.705 9 -61581040.137 8
  22210981.594    22210983.837    74323040.825 9 -83365176.083 7
  24613977.676    24613980.514    14713950.813 9 -39038979.194 9
 86  6 18  4 14 53.0800000  0  3G12G13G 7
  21656066.834    21656069.140    45550440.483 9 -61569819.537 8
  22212805.614    22212806.785    74332624.150 9 -83357708.555 8
  24613321.655    24613324.145    14710503.844 9 -39041665.137 9
 86  6 18  4 14 59.0800000  0  3G12G13G 7
  21658810.376    21658812.067    45564859.287 9 -61558584.109 8
  22214629.863    22214632.307    74342208.548 9 -83350240.194 8
                  24612672.254                   -39044331.372 9
 86  6 18  4 15  5.0800000  0  3G12G13G 7
  21661556.870    21661559.603    45579297.109 9 -61547333.856 9
  22216453.598    22216454.884    74351794.216 9 -83342770.827 7
  24612035.222    24612027.995    14670650.997 9 -39046972.350 9
 86  6 18  4 15 11.0800000  0  3G12G13G 7
  21664308.520    21664309.973    45593754.058 9 -61536068.697 8
  22218277.564    22218279.548    74361381.205 8 -83335300.450 8
  24611388.202    24611391.156    14667299.301 9 -39049583.999 9
 86  6 18  4 15 17.0800000  0  3G12G13G 7
  21667062.769    21667065.343    45608230.060 9 -61524788.701 8
  22220102.960    22220103.443    74370969.486 8 -83327829.046 8
  24610757.518    24610758.163    14663984.084 9 -39052167.287 8
 86  6 18  4 15 23.0800000  0  3G12G13G 7
  21669821.348    21669822.542    45622725.013 9 -61513493.940 8
  22221927.094    22221928.982    74380558.921 8 -83320356.768 7
  24610132.864    24610134.939    14660701.148 9 -39054725.406 9
 86  6 18  4 15 29.0800000  0  3G12G13G 7
  21672583.350    21672584.867    45637239.029 9 -61502184.315 8
  22223751.776    22223753.385    74390149.693 8 -83312883.431 7
  24609513.339    24609515.349    14657445.933 9 -39057261.941 9
 86  6 18  4 15 35.0800000  0  3G12G13G 7
  21675348.090    21675350.398    45651771.959 9 -61490859.957 9
  22225577.541    22225579.199    74399741.731 9 -83305409.107 8
  24608898.294    24608899.667    14654215.065 9 -39059779.502 8
 86  6 18  4 15 41.0800000  0  3G12G13G 7
  21678117.585    21678119.012    45666323.789 9 -61479520.867 8
  22227401.793    22227403.908    74409334.894 9 -83297933.909 8
  24608288.184    24608289.029    14651006.018 9 -39062280.049 8
 86  6 18  4 15 47.0800000  0  3G12G13G 7
  21680890.511    21680892.099    45680894.557 9 -61468167.021 9
  22229227.443    22229229.715    74418929.260 9 -83290457.777 7
  24607681.045    24607682.672    14647817.316 9 -39064764.756 9
 86  6 18  4 15 53.0800000  0  3G12G13G 7
  21683667.082    21683668.558    45695484.271 9 -61456798.414 8
  22231054.156    22231056.842    74428524.907 9 -83282980.650 8
  24607078.121    24607080.625    14644649.617 9 -39067233.081 9
 86  6 18  4 15 59.0800000  0  3G12G13G 7
  21686446.741    21686449.573    45710092.833 9 -61445415.126 8
  22232879.037    22232881.880    74438121.722 9 -83275502.604 7
                  24606481.998                   -39069681.367 8
 86  6 18  4 16  5.0800000  0  3G12G13G 7
  21689229.785    21689232.316    45724720.292 9 -61434017.108 8
  22234706.204    22234708.420    74447719.721 8 -83268023.638 8
  24605802.708    24605890.676    14605078.790 9 -39072104.099 8
 86  6 18  4 16 11.0800000  0  3G12G13G 7
  21692016.325    21692018.388    45739366.628 9 -61422604.374 7
  22236533.144    22236537.433    74457318.949 8 -83260543.713 8
  24605303.282    24605305.803    14602006.956 9 -39074497.494 9
 86  6 18  4 16 17.0800000  0  3G12G13G 7
  21694807.312    21694809.068    45754031.706 9 -61411177.045 7
  22238359.742    22238362.014    74466919.306 9 -83253062.916 8
  24604726.405    24604728.863    14598971.587 9 -39076862.723 9
 86  6 18  4 16 23.0800000  0  3G12G13G 7
  21697601.693    21697603.392    45768715.470 9 -61399735.152 8
  22240186.827    22240190.985    74476520.757 9 -83245581.253 8
  24604154.737    24604157.353    14595968.172 9 -39079203.045 8
 86  6 18  4 16 29.0800000  0  3G12G13G 7
  21700398.421    21700401.732    45783418.013 9 -61388278.625 8
  22242014.910    22242017.853    74486123.443 9 -83238098.636 7
  24603587.708    24603589.972    14592992.285 9 -39081521.910 8
 86  6 18  4 16 35.0800000  0  3G12G13G 7
  21703201.436    21703203.262    45798139.456 9 -61376807.393 8
  22243842.825    22243843.953    74495727.326 9 -83230615.096 7
  24603025.900    24603029.122    14590040.686 9 -39083821.855 8
 86  6 18  4 16 41.0800000  0  3G12G13G 7
  21706005.580    21706007.743    45812879.440 9 -61365321.699 9
  22245670.420    22245673.196    74505332.462 9 -83223130.565 7
  24602468.634    24602470.884    14587110.996 9 -39086104.734 9
 86  6 18  4 16 47.0800000  0  3G12G13G 7
  21708814.945    21708816.843    45827638.084 8 -61353821.466 8
  22247498.337    22247500.868    74514938.755 9 -83215645.148 7
  24601914.976    24601917.312    14584201.550 9 -39088371.832 9
 86  6 18  4 16 53.0800000  0  3G12G13G 7
  21711625.560    21711628.259    45842415.521 9 -61342306.583 8
  22249326.133    22249330.038    74524546.311 9 -83208158.744 8
  24601365.130    24601367.702    14581313.487 9 -39090622.272 9
 86  6 18  4 16 59.0800000  0  3G12G13G 7
  21714441.393    21714444.226    45857211.607 9 -61330777.160 7
  22251155.708    22251157.624    74534155.029 9 -83200671.409 8
                  24600822.966                   -39092852.484 8
 86  6 18  4 17  5.0800000  0  3G12G13G 7
  21717260.888    21717263.838    45872026.229 9 -61319233.313 8
  22252984.448    22252986.523    74543764.802 8 -83193183.277 8
  24600305.823    24600283.937    14542011.824 9 -39095056.880 8
 86  6 18  4 17 11.0800000  0  3G12G13G 7
  21720083.569    21720085.826    45886859.502 9 -61307674.915 8
  22254812.594    22254816.768    74553375.824 9 -83185694.164 8
  24599751.405    24599753.618    14539220.679 9 -39097231.850 9
 86  6 18  4 17 17.0800000  0  3G12G13G 7
  21722909.843    21722912.768    45901711.360 9 -61296102.042 7
  22256642.109    22256643.895    74562988.088 9 -83178204.091 8
  24599227.038    24599229.132    14536465.575 9 -39099378.683 9
 86  6 18  4 17 23.0800000  0  3G12G13G 7
  21725740.009    21725742.673    45916581.685 8 -61284514.780 7
  22258471.283    22258473.353    74572601.439 9 -83170713.162 8
  24598708.930    24598710.784    14533741.765 9 -39101500.744 9
 86  6 18  4 17 29.0800000  0  3G12G13G 7
  21728572.665    21728575.890    45931470.534 9 -61272913.085 7
  22260300.456    22260302.755    74582215.981 8 -83163221.304 9
  24598195.221    24598197.441    14531045.696 9 -39103601.576 9
 86  6 18  4 17 35.0800000  0  3G12G13G 7
  21731409.037    21731411.905    45946377.938 9 -61261296.942 7
  22262130.887    22262133.503    74591831.786 9 -83155728.471 8
  24597687.365    24597689.432    14528373.829 9 -39105683.558 8
 86  6 18  4 17 41.0800000  0  3G12G13G 7
  21734249.142    21734251.991    45961303.679 9 -61249666.489 8
  22263960.517    22263962.976    74601448.730 8 -83148234.739 8
  24597181.859    24597185.931    14525723.791 9 -39107748.514 8
 86  6 18  4 17 47.0800000  0  3G12G13G 7
  21737093.180    21737095.859    45976247.772 8 -61238021.739 8
  22265792.150    22265793.308    74611066.783 9 -83140740.143 8
  24596681.717    24596685.543    14523094.079 9 -39109797.649 9
 86  6 18  4 17 53.0800000  0  3G12G13G 7
  21739940.112    21739943.180    45991210.369 9 -61226362.594 7
  22267621.838    22267623.211    74620686.018 9 -83133244.636 8
  24596185.974    24596189.622    14520485.689 9 -39111830.162 8
 86  6 18  4 17 59.0800000  0  3G12G13G 7
  21742791.165    21742794.234    46006191.431 9 -61214689.035 8
  22269452.671    22269453.770    74630306.470 9 -83125748.178 9
                  24595697.092                   -39113841.938 8
 86  6 18  4 18  5.0800000  0  3G12G13G 7
  21745645.392    21745648.061    46021190.828 9 -61203001.201 8
  22271283.676    22271284.687    74639927.973 9 -83118250.904 8
  24595212.933    24595212.947    14481469.100 9 -39115827.630 9
 86  6 18  4 18 11.0800000  0  3G12G13G 7
  21748503.035    21748505.574    46036208.520 9 -61191299.092 8
  22273114.336    22273116.293    74649550.633 9 -83110752.728 8
  24594731.504    24594735.934    14478958.659 9 -39117783.815 9
 86  6 18  4 18 17.0800000  0  3G12G13G 7
  21751364.604    21751366.697    46051244.676 8 -61179582.617 7
  22274945.858    22274948.170    74659174.486 9 -83103253.626 9
  24594260.963    24594264.283    14476484.712 9 -39119711.952 9
 86  6 18  4 18 23.0800000  0  3G12G13G 7
  21754229.022    21754231.376    46066299.097 9 -61167851.898 8
  22276777.833    22276780.118    74668799.353 9 -83095753.724 8
  24593796.799    24593798.981    14474041.815 9 -39121615.518 9
 86  6 18  4 18 29.0800000  0  3G12G13G 7
  21757097.987    21757100.060    46081371.640 9 -61156107.055 8
  22278609.584    22278612.013    74678425.328 9 -83088252.959 9
  24593336.746    24593341.043    14471625.946 9 -39123498.003 9
 86  6 18  4 18 35.0800000  0  3G12G13G 7
  21759969.637    21759972.068    46096462.512 9 -61144347.942 7
  22280442.216    22280443.659    74688052.599 9 -83080751.189 6
  24592881.547    24592884.917    14469234.113 9 -39125361.782 9
 86  6 18  4 18 41.0800000  0  3G12G13G 7
  21762844.611    21762847.371    46111571.583 9 -61132574.641 7
  22282274.367    22282276.552    74697680.972 9 -83073248.560 8
  24592430.293    24592433.356    14466863.950 9 -39127208.657 8
 86  6 18  4 18 47.0800000  0  3G12G13G 7
  21765723.286    21765725.724    46126698.772 9 -61120787.224 8
  22284105.743    22284107.529    74707310.417 9 -83065745.095 9
  24591983.180    24591986.378    14464514.125 9 -39129039.692 9
 86  6 18  4 18 53.0800000  0  3G12G13G 7
  21768605.558    21768607.606    46141844.143 9 -61108985.652 8
  22285939.724    22285941.865    74716941.019 9 -83058240.726 8
  24591539.681    24591543.293    14462185.929 9 -39130853.877 8
 86  6 18  4 18 59.0800000  0  3G12G13G 7
  21771490.246    21771494.079    46157007.706 9 -61097169.890 8
  22287772.874    22287774.602    74726572.862 9 -83050735.395 8
                  24591104.033                   -39132647.004 8
 86  6 18  4 19  5.0800000  0  3G12G13G 7
  21774380.261    21774383.373    46172189.336 9 -61085340.047 8
  22289605.739    22289607.051    74736205.746 9 -83043229.256 8
  24590672.643    24590672.614    14423446.276 9 -39134413.767 9
 86  6 18  4 19 11.0800000  0  3G12G13G 7
  21777272.284    21777274.825    46187389.064 9 -61073496.113 8
  22291438.917    22291439.973    74745839.759 9 -83035722.223 7
  24590246.321    24590248.783    14421217.041 9 -39136150.930 9
 86  6 18  4 19 17.0800000  0  3G12G13G 7
  21780167.790    21780169.736    46202606.973 9 -61061637.993 8
  22293271.866    22293273.581    74755475.012 9 -83028214.236 8
  24589829.050    24589831.762    14419023.605 9 -39137860.089 9
 86  6 18  4 19 23.0800000  0  3G12G13G 7
  21783067.797    21783069.653    46217842.926 9 -61049765.829 7
  22295105.392    22295107.790    74765111.462 9 -83020705.312 7
  24589418.124    24589419.991    14416861.723 9 -39139544.676 9
 86  6 18  4 19 29.0800000  0  3G12G13G 7
  21785970.029    21785973.118    46233096.920 9 -61037879.600 7
  22296940.114    22296939.910    74774748.992 9 -83013195.548 7
  24589012.214    24589014.354    14414726.661 9 -39141208.358 8
 86  6 18  4 19 35.0800000  0  3G12G13G 7
  21788876.835    21788879.968    46248368.957 9 -61025979.310 8
  22298773.723    22298775.079    74784387.685 9 -83005684.875 8
  24588610.704    24588611.291    14412615.460 9 -39142853.447 8
 86  6 18  4 19 41.0800000  0  3G12G13G 7
  21791785.996    21791789.134    46263658.963 9 -61014065.036 8
  22300607.990    22300608.473    74794027.444 9 -82998173.370 7
  24588213.309    24588215.063    14410525.921 9 -39144481.652 9
 86  6 18  4 19 47.0800000  0  3G12G13G 7
  21794698.897    21794701.821    46278966.923 9 -61002136.762 8
  22302442.830    22302442.296    74803668.326 9 -82990660.994 8
  24587819.562    24587819.472    14408456.768 9 -39146093.989 8
 86  6 18  4 19 53.0800000  0  3G12G13G 7
  21797616.297    21797618.073    46294292.842 9 -60990194.476 7
  22304277.383    22304278.295    74813310.410 9 -82983147.679 8
  24587430.682    24587430.683    14406409.521 9 -39147689.232 8
 86  6 18  4 19 59.0800000  0  3G12G13G 7
  21800535.298    21800537.964    46309636.682 9 -60978238.247 8
  22306113.423    22306112.790    74822953.685 9 -82975633.427 8
                  24587046.330                   -39149263.098 8
 86  6 18  4 20  5.0800000  0  3G12G13G 7
  21803459.055    21803461.526    46324998.260 9 -60966268.184 8
  22307947.804    22307947.201    74832597.916 9 -82968118.446 7
  24586667.315    24586669.266    14367953.028 8 -39150810.379 9
 86  6 18  4 20 11.0800000  0  3G12G13G 7
  21806385.424    21806389.402    46340377.736 9 -60954284.170 8
  22309783.272    22309784.385    74842243.286 9 -82960602.582 7
  24586297.078    24586298.049    14366005.200 9 -39152328.165 8
 86  6 18  4 20 17.0800000  0  3G12G13G 7
  21809315.378    21809317.534    46355775.119 9 -60942286.208 8
  22311618.457    22311618.955    74851889.882 9 -82953085.742 7
  24585933.580    24585934.781    14364093.079 9 -39153818.130 9
 86  6 18  4 20 23.0800000  0  3G12G13G 7
  21812248.582    21812252.364    46371190.258 9 -60930274.426 9
  22313455.068    22313455.820    74861537.627 9 -82945568.005 7
  24585575.557    24585576.037    14362212.237 9 -39155283.721 9
 86  6 18  4 20 29.0800000  0  3G12G13G 7
  21815186.080    21815188.408    46386623.079 9 -60918248.848 8
  22315290.568    22315289.934    74871186.407 9 -82938049.479 7
  24585222.993    24585224.309    14360358.059 9 -39156728.522 9
 86  6 18  4 20 35.0800000  0  3G12G13G 7
  21818125.589    21818129.174    46402073.675 9 -60906209.418 8
  22317127.294    22317126.674    74880836.333 9 -82930530.057 6
  24584873.969    24584876.193    14358527.709 9 -39158154.768 9
 86  6 18  4 20 41.0800000  0  3G12G13G 7
  21821068.724    21821072.473    46417542.059 9 -60894156.133 8
  22318963.565    22318962.503    74890487.453 9 -82923009.701 7
  24584530.196    24584531.677    14356718.844 9 -39159564.258 9
 86  6 18  4 20 47.0800000  0  3G12G13G 7
  21824016.049    21824020.309    46433028.054 9 -60882089.134 9
  22320800.293    22320800.616    74900139.599 9 -82915488.543 7
  24584189.424    24584191.221    14354930.385 9 -39160957.860 8
 86  6 18  4 20 53.0800000  0  3G12G13G 7
  21826966.204    21826969.808    46448531.725 9 -60870008.345 9
  22322637.450    22322636.874    74909792.787 9 -82907966.569 7
  24583853.379    24583854.524    14353163.822 9 -39162334.405 9
 86  6 18  4 20 59.0800000  0  3G12G13G 7
  21829919.425    21829923.769    46464053.135 9 -60857913.739 9
  22324474.977    22324473.743    74919447.182 9 -82900443.660 8
                  24583523.726                   -39163689.195 8
 86  6 18  4 21  5.0800000  0  3G12G13G 7
  21832877.716    21832880.199    46479592.106 9 -60845805.449 9
  22326311.934    22326311.459    74929102.670 9 -82892919.896 7
  24583119.660    24583200.193    14314977.557 9 -39165016.912 9
 86  6 18  4 21 11.0800000  0  3G12G13G 7
  21835837.887    21835841.004    46495148.719 9 -60833683.423 9
  22328149.923    22328149.402    74938759.296 9 -82885395.243 7
  24582880.780    24582883.106    14313311.311 9 -39166315.054 9
 86  6 18  4 21 17.0800000  0  3G12G13G 7
  21838801.362    21838804.763    46510722.893 9 -60821547.699 9
  22329987.107    22329985.931    74948416.996 9 -82877869.761 6
  24582570.322    24582571.888    14311680.667 9 -39167585.686 8
 86  6 18  4 21 23.0800000  0  3G12G13G 7
  21841767.812    21841771.676    46526314.829 9 -60809398.149 8
  22331824.868    22331823.990    74958075.914 9 -82870343.317 7
  24582265.863    24582268.304    14310081.082 9 -39168832.119 9
 86  6 18  4 21 29.0800000  0  3G12G13G 7
  21844738.233    21844742.350    46541924.233 9 -60797234.969 8
  22333662.854    22333662.407    74967735.847 9 -82862816.085 8
  24581966.837    24581968.262    14308507.867 9 -39170057.996 9
 86  6 18  4 21 35.0800000  0  3G12G13G 7
  21847711.908    21847716.144    46557551.055 9 -60785058.228 9
  22335501.500    22335501.784    74977396.846 9 -82855288.044 8
  24581671.551    24581672.882    14306958.381 9 -39171265.389 8
 86  6 18  4 21 41.0800000  0  3G12G13G 7
  21850689.062    21850693.453    46573195.432 9 -60772867.807 9
  22337339.942    22337341.043    74987058.938 9 -82847759.123 7
  24581381.204    24581382.462    14305430.425 9 -39172456.016 8
 86  6 18  4 21 47.0800000  0  3G12G13G 7
  21853669.487    21853672.893    46588857.170 9 -60760663.854 9
  22339178.876    22339179.371    74996722.092 9 -82840229.413 8
  24581093.587    24581096.162    14303922.804 9 -39173630.783 8
 86  6 18  4 21 53.0800000  0  3G12G13G 7
  21856653.228    21856657.371    46604536.235 9 -60748446.407 8
  22341018.121    22341018.787    75006386.258 9 -82832698.884 8
  24580811.347    24580813.042    14302437.393 9 -39174788.227 9
 86  6 18  4 21 59.0800000  0  3G12G13G 7
  21859640.227    21859644.387    46620232.695 9 -60736215.408 8
  22342857.481    22342858.452    75016051.605 9 -82825167.435 7
                  24580534.778                   -39175923.589 8
 86  6 18  4 22  5.0800000  0  3G12G13G 7
  21862630.234    21862633.546    46635946.608 9 -60723970.801 9
  22344696.931    22344697.312    75025718.125 9 -82817635.088 8
  24580263.394    24580263.937    14264541.923 9 -39177031.595 8
 86  6 18  4 22 11.0800000  0  3G12G13G 7
  21865624.061    21865628.023    46651677.732 9 -60711712.786 8
  22346536.404    22346537.588    75035385.656 9 -82810101.930 7
  24579999.298    24580001.602    14263157.795 9 -39178110.129 9
 86  6 18  4 22 17.0800000  0  3G12G13G 7
  21868620.721    21868623.940    46667426.234 9 -60699441.227 8
  22348376.451    22348378.551    75045054.260 9 -82802567.961 8
  24579742.997    24579744.944    14261808.345 9 -39179161.254 9
 86  6 18  4 22 23.0800000  0  3G12G13G 7
  21871621.056    21871624.617    46683192.110 9 -60687156.127 8
  22350216.042    22350219.498    75054724.068 9 -82795033.027 8
  24579491.972    24579493.638    14260490.182 9 -39180188.400 9
 86  6 18  4 22 29.0800000  0  3G12G13G 7
  21874624.743    21874628.017    46698975.183 9 -60674857.629 8
  22352057.290    22352058.647    75064394.878 9 -82787497.334 8
  24579246.253    24579248.557    14259198.351 9 -39181195.012 9
 86  6 18  4 22 35.0800000  0  3G12G13G 7
  21877631.097    21877634.103    46714775.421 9 -60662545.750 9
  22353897.395    22353899.624    75074066.814 9 -82779960.758 8
  24579005.236    24579007.231    14257930.020 9 -39182183.329 8
 86  6 18  4 22 41.0800000  0  3G12G13G 7
  21880641.534    21880643.760    46730592.971 9 -60650220.391 8
  22355737.930    22355738.930    75083739.941 9 -82772423.252 8
  24578768.061    24578769.685    14256683.115 9 -39183154.936 9
 86  6 18  4 22 47.0800000  0  3G12G13G 7
  21883655.410    21883656.616    46746427.752 9 -60637881.596 9
  22357578.723    22357580.363    75093414.059 9 -82764884.962 8
  24578534.970    24578536.172    14255456.619 9 -39184110.643 9
 86  6 18  4 22 53.0800000  0  3G12G13G 7
  21886671.440    21886673.758    46762279.634 9 -60625529.472 8
  22359420.600    22359421.011    75103089.261 9 -82757345.861 9
  24578305.307    24578306.640    14254252.455 9 -39185048.956 9
 86  6 18  4 22 59.0800000  0  3G12G13G 7
  21889691.882    21889693.190    46778148.647 9 -60613164.001 8
  22361261.965    22361262.234    75112765.640 9 -82749805.812 8
                  24578083.414                   -39185964.971 9
 86  6 18  4 23  5.0800000  0  3G12G13G 7
  21892714.282    21892716.532    46794034.839 9 -60600785.159 8
  22363103.672    22363104.613    75122443.155 9 -82742264.893 9
  24577865.015    24577866.459    14216633.839 8 -39186853.323 8
 86  6 18  4 23 11.0800000  0  3G12G13G 7
  21895740.933    21895743.082    46809938.101 9 -60588393.014 9
  22364945.610    22364946.877    75132121.728 9 -82734723.141 8
  24577655.481    24577656.553    14215531.617 9 -39187712.200 8
 86  6 18  4 23 17.0800000  0  3G12G13G 7
  21898771.040    21898772.986    46825858.535 9 -60575987.469 8
  22366786.915    22366789.072    75141801.305 9 -82727180.609 8
  24577451.869    24577453.816    14214464.464 9 -39188543.737 9
 86  6 18  4 23 23.0800000  0  3G12G13G 7
  21901803.616    21901805.351    46841796.125 9 -60563568.579 9
  22368630.626    22368631.108    75151481.982 9 -82719637.223 9
  24577254.520    24577255.825    14213428.010 9 -39189351.361 9
 86  6 18  4 23 29.0800000  0  3G12G13G 7
  21904839.347    21904841.103    46857750.597 9 -60551136.514 8
  22370472.162    22370473.874    75161163.747 9 -82712092.985 7
  24577062.649    24577065.725    14212417.775 9 -39190138.561 9
 86  6 18  4 23 35.0800000  0  3G12G13G 7
  21907878.595    21907879.540    46873721.975 9 -60538691.299 8
  22372314.615    22372315.699    75170846.492 9 -82704547.990 9
  24576874.877    24576876.794    14211430.844 9 -39190907.592 9
 86  6 18  4 23 41.0800000  0  3G12G13G 7
  21910920.631    21910923.038    46889710.373 9 -60526232.812 9
  22374155.978    22374159.380    75180530.322 9 -82697002.150 8
  24576691.433    24576692.793    14210465.224 9 -39191660.025 8
 86  6 18  4 23 47.0800000  0  3G12G13G 7
  21913966.306    21913968.203    46905715.668 9 -60513761.153 8
  22376000.660    22376001.989    75190215.260 9 -82689455.439 8
  24576511.444    24576514.092    14209519.912 9 -39192396.634 8
 86  6 18  4 23 53.0800000  0  3G12G13G 7
  21917015.612    21917017.235    46921737.893 9 -60501276.310 9
  22377842.655    22377845.053    75199901.206 9 -82681907.954 8
  24576336.006    24576338.186    14208597.203 9 -39193115.625 9
 86  6 18  4 23 59.0800000  0  3G12G13G 7
  21920067.267    21920070.160    46937776.996 9 -60488778.312 7
  22379686.364    22379688.152    75209588.252 9 -82674359.615 8
                  24576167.956                   -39193811.970 9
 86  6 18  4 24  5.0800000  0  3G12G13G 7
  21923121.953    21923125.250    46953833.021 9 -60476267.134 8
  22381530.077    22381531.774    75219276.480 9 -82666810.334 8
  24576003.297    24576005.052    14171262.205 9 -39194480.438 9
 86  6 18  4 24 11.0800000  0  3G12G13G 7
  21926180.522    21926183.863    46969905.865 9 -60463742.831 7
  22383373.159    22383375.043    75228965.801 9 -82659260.220 9
  24575847.016    24575848.259    14170442.042 9 -39195119.514 9
 86  6 18  4 24 17.0800000  0  3G12G13G 7
  21929242.780    21929244.738    46985995.482 9 -60451205.477 9
  22385217.470    22385219.352    75238656.129 9 -82651709.313 9
  24575697.433    24575699.379    14169657.081 9 -39195731.549 8
 86  6 18  4 24 23.0800000  0  3G12G13G 7
  21932308.103    21932310.227    47002101.947 9 -60438654.994 8
  22387061.923    22387064.595    75248347.546 9 -82644157.559 8
  24575554.091    24575554.779    14168901.884 9 -39196320.016 9
 86  6 18  4 24 29.0800000  0  3G12G13G 7
  21935375.499    21935378.126    47018225.166 9 -60426091.441 7
  22388906.208    22388908.191    75258040.017 9 -82636604.986 8
  24575415.019    24575416.672    14168172.734 9 -39196888.190 9
 86  6 18  4 24 35.0800000  0  3G12G13G 7
  21938446.710    21938449.778    47034365.068 9 -60413514.905 7
  22390750.149    22390753.220    75267733.501 9 -82629051.617 9
  24575281.322    24575281.830    14167466.803 9 -39197438.255 9
 86  6 18  4 24 41.0800000  0  3G12G13G 7
  21941521.894    21941524.384    47050521.792 9 -60400925.243 8
  22392596.464    22392598.119    75277428.097 9 -82621497.386 9
  24575150.656    24575151.888    14166782.228 9 -39197971.690 9
 86  6 18  4 24 47.0800000  0  3G12G13G 7
  21944598.371    21944601.204    47066695.282 9 -60388322.532 9
  22394440.574    22394442.960    75287123.785 9 -82613942.304 9
  24575024.298    24575025.287    14166118.204 9 -39198489.101 9
 86  6 18  4 24 53.0800000  0  3G12G13G 7
  21947680.710    21947683.541    47082885.368 9 -60375706.887 8
  22396286.546    22396287.432    75296820.481 9 -82606386.436 9
  24574901.697    24574903.007    14165477.001 9 -39198988.735 9
 86  6 18  4 24 59.0800000  0  3G12G13G 7
  21950764.104    21950767.405    47099092.037 9 -60363078.311 8
  22398132.086    22398133.544    75306518.168 9 -82598829.790 8
                  24574786.671                   -39199465.520 9
 86  6 18  4 25  5.0800000  0  3G12G13G 7
  21953851.173    21953853.644    47115315.446 9 -60350436.693 9
  22399978.661    22399978.256    75316217.006 9 -82591272.260 8
  24574676.065    24574677.356    14128417.218 9 -39199914.284 9
 86  6 18  4 25 11.0800000  0  3G12G13G 7
  21956941.329    21956944.066    47131555.379 9 -60337782.206 8
  22401823.172    22401823.970    75325916.890 9 -82583713.905 8
  24574572.928    24574575.160    14127879.031 9 -39200333.643 9
 86  6 18  4 25 17.0800000  0  3G12G13G 7
  21960035.197    21960038.022    47147811.776 9 -60325114.878 8
  22403669.059    22403669.498    75335617.799 9 -82576154.738 8
  24574476.418    24574478.864    14127375.198 9 -39200726.247 9
 86  6 18  4 25 23.0800000  0  3G12G13G 7
  21963132.009    21963134.682    47164084.777 9 -60312434.617 9
  22405515.746    22405516.315    75345319.874 9 -82568594.688 9
  24574386.197    24574388.625    14126901.399 9 -39201095.434 9
 86  6 18  4 25 29.0800000  0  3G12G13G 7
  21966230.873    21966235.149    47180374.319 9 -60299741.475 9
  22407361.345    22407363.186    75355023.016 9 -82561033.797 9
  24574301.285    24574303.239    14126453.405 9 -39201444.514 8
 86  6 18  4 25 35.0800000  0  3G12G13G 7
  21969334.021    21969336.538    47196680.165 9 -60287035.622 9
  22409208.604    22409209.574    75364727.081 9 -82553472.190 9
  24574219.518    24574221.892    14126028.451 9 -39201775.647 9
 86  6 18  4 25 41.0800000  0  3G12G13G 7
  21972440.236    21972442.722    47213002.494 9 -60274316.921 8
  22411055.693    22411057.435    75374432.147 9 -82545909.789 8
  24574143.040    24574145.044    14125624.599 9 -39202090.341 8
 86  6 18  4 25 47.0800000  0  3G12G13G 7
  21975548.724    21975552.821    47229341.331 9 -60261585.363 8
  22412902.780    22412903.291    75384138.332 9 -82538346.537 9
  24574069.569    24574072.146    14125241.304 9 -39202389.000 8
 86  6 18  4 25 53.0800000  0  3G12G13G 7
  21978660.757    21978665.731    47245696.567 9 -60248841.022 8
  22414750.414    22414751.609    75393845.462 9 -82530782.534 8
  24574000.958    24574003.548    14124881.199 9 -39202669.616 8
 86  6 18  4 25 59.0800000  0  3G12G13G 7
  21981776.588    21981780.118    47262068.119 9 -60236083.981 9
  22416597.130    22416598.197    75403553.619 9 -82523217.742 9
                  24573941.128                   -39202927.014 8
 86  6 18  4 26  5.0800000  0  3G12G13G 7
  21984895.145    21984898.890    47278456.053 9 -60223314.166 9
  22418444.617    22418445.169    75413262.936 9 -82515652.035 8
  24573882.768    24573885.719    14088099.252 9 -39203156.176 8
 86  6 18  4 26 11.0800000  0  3G12G13G 7
  21988015.854    21988022.152    47294860.270 9 -60210531.643 9
  22420293.020    22420293.831    75422973.325 9 -82508085.498 9
  24573833.294    24573835.440    14087842.798 9 -39203356.011 9
 86  6 18  4 26 17.0800000  0  3G12G13G 7
  21991141.435    21991144.665    47311280.675 9 -60197736.525 9
  22422140.507    22422141.292    75432684.694 9 -82500518.203 8
  24573791.546    24573793.448    14087619.986 9 -39203529.249 8
 86  6 18  4 26 23.0800000  0  3G12G13G 7
  21994268.971    21994272.982    47327717.392 9 -60184928.697 9
  22423988.341    22423990.182    75442397.097 9 -82492950.082 8
  24573754.243    24573756.854    14087427.401 9 -39203679.305 9
 86  6 18  4 26 29.0800000  0  3G12G13G 7
  21997399.659    21997404.250    47344170.469 9 -60172108.114 9
  22425837.087    22425839.274    75452110.586 9 -82485381.128 9
  24573722.331    24573724.491    14087260.487 9 -39203809.355 8
 86  6 18  4 26 35.0800000  0  3G12G13G 7
  22000533.617    22000538.374    47360639.732 9 -60159274.922 9
  22427686.006    22427687.633    75461825.117 9 -82477811.355 9
  24573695.493    24573697.220    14087116.637 9 -39203921.458 8
 86  6 18  4 26 41.0800000  0  3G12G13G 7
  22003671.435    22003675.500    47377125.119 9 -60146429.168 9
  22429534.010    22429536.396    75471540.776 9 -82470240.722 9
  24573672.385    24573674.968    14086993.681 9 -39204017.252 8
 86  6 18  4 26 47.0800000  0  3G12G13G 7
  22006810.896    22006816.297    47393626.714 9 -60133570.776 8
  22431383.159    22431385.030    75481257.577 9 -82462669.182 8
  24573652.657    24573654.649    14086891.397 9 -39204096.962 9
 86  6 18  4 26 53.0800000  0  3G12G13G 7
  22009953.882    22009959.228    47410144.334 9 -60120699.908 9
  22433233.481    22433234.350    75490975.250 9 -82455096.965 9
  24573637.905    24573639.301    14086812.431 9 -39204158.493 8
 86  6 18  4 26 59.0800000  0  3G12G13G 7
  22013099.712    22013104.891    47426678.204 9 -60107816.375 9
  22435081.942    22435084.228    75500694.106 9 -82447523.833 9
                  24573630.786                   -39204196.411 8
 86  6 18  4 27  5.0800000  0  3G12G13G 7
  22016249.281    22016254.724    47443228.212 9 -60094920.278 9
  22436932.579    22436933.260    75510414.065 9 -82439949.831 8
  24573626.932    24573626.939    14050315.969 9 -39204205.992 8
 86  6 18  4 27 11.0800000  0  3G12G13G 7
  22019401.064    22019407.460    47459794.327 8 -60082011.613 8
  22438781.497    22438783.012    75520135.154 9 -82432374.956 8
  24573631.653    24573632.892    14050341.325 9 -39204186.227 9
 86  6 18  4 27 17.0800000  0  3G12G13G 7
  22022557.075    22022561.781    47476376.419 9 -60069090.498 9
  22440631.105    22440633.074    75529857.184 9 -82424799.333 8
  24573642.863    24573645.445    14050401.240 9 -39204139.932 8
 86  6 18  4 27 23.0800000  0  3G12G13G 7
  22025716.512    22025721.261    47492974.508 9 -60056156.926 9
  22442481.483    22442483.852    75539580.251 9 -82417222.933 9
  24573660.128    24573659.993    14050489.987 9 -39204070.766 8
 86  6 18  4 27 29.0800000  0  3G12G13G 7
  22028877.081    22028881.438    47509588.654 8 -60043210.841 8
  22444331.947    22444333.430    75549304.425 9 -82409645.652 9
  24573681.805    24573682.817    14050604.375 9 -39203981.648 9
 86  6 18  4 27 35.0800000  0  3G12G13G 7
  22032041.776    22032046.226    47526218.688 8 -60030252.380 8
  22446182.297    22446184.326    75559029.587 9 -82402067.594 8
  24573708.434    24573709.325    14050741.543 9 -39203874.760 9
 86  6 18  4 27 41.0800000  0  3G12G13G 7
  22035210.297    22035213.820    47542864.559 8 -60017281.576 8
  22448032.877    22448035.178    75568755.717 9 -82394488.795 8
  24573737.876    24573739.724    14050899.502 9 -39203751.665 9
 86  6 18  4 27 47.0800000  0  3G12G13G 7
  22038380.936    22038384.750    47559526.383 9 -60004298.345 8
  22449884.398    22449886.784    75578483.024 9 -82386909.070 7
  24573772.510    24573773.043    14051078.153 9 -39203612.463 9
 86  6 18  4 27 53.0800000  0  3G12G13G 7
  22041554.494    22041557.575    47576204.097 9 -59991302.734 8
  22451734.866    22451737.880    75588211.396 9 -82379328.514 8
  24573810.787    24573812.142    14051280.504 9 -39203454.781 8
 86  6 18  4 27 59.0800000  0  3G12G13G 7
  22044731.842    22044733.600    47592897.588 9 -59978294.823 8
  22453585.904    22453589.219    75597940.749 9 -82371747.206 8
                  24573855.708                   -39203273.332 8
 86  6 18  4 28  5.0800000  0  3G12G13G 7
  22047912.150    22047914.532    47609606.856 8 -59965274.603 8
  22455438.312    22455440.870    75607671.051 8 -82364165.150 8
  24573906.996    24573907.188    14014824.826 9 -39203063.350 8
 86  6 18  4 28 11.0800000  0  3G12G13G 7
  22051094.326    22051097.119    47626332.059 9 -59952241.991 8
  22457289.922    22457291.366    75617402.465 9 -82356582.217 8
  24573965.356    24573965.863    14015131.671 9 -39202824.261 9
 86  6 18  4 28 17.0800000  0  3G12G13G 7
  22054281.744    22054281.965    47643072.984 9 -59939197.116 8
  22459141.932    22459144.277    75627134.813 9 -82348998.558 9
  24574030.039    24574031.542    14015472.297 9 -39202558.833 8
 86  6 18  4 28 23.0800000  0  3G12G13G 7
  22057470.192    22057471.326    47659829.615 9 -59926140.006 7
  22460994.172    22460995.815    75636868.178 9 -82341414.121 8
  24574100.940    24574101.837    14015841.985 9 -39202270.765 9
 86  6 18  4 28 29.0800000  0  3G12G13G 7
  22060662.630    22060660.580    47676602.087 9 -59913070.540 8
  22462847.212    22462849.742    75646602.815 9 -82333828.687 9
  24574175.921    24574177.036    14016237.190 9 -39201962.804 8
 86  6 18  4 28 35.0800000  0  3G12G13G 7
  22063856.393    22063855.598    47693390.262 9 -59899988.845 7
  22464699.136    22464701.824    75656338.587 8 -82326242.368 8
  24574255.323    24574256.561    14016655.122 9 -39201637.144 9
 86  6 18  4 28 41.0800000  0  3G12G13G 7
  22067054.747    22067054.303    47710193.999 9 -59886895.024 8
  22466551.664    22466555.407    75666075.292 9 -82318655.313 7
  24574339.467    24574340.583    14017093.829 9 -39201295.298 9
 86  6 18  4 28 47.0800000  0  3G12G13G 7
  22070255.766    22070253.747    47727013.395 9 -59873789.008 8
  22468405.104    22468407.316    75675813.048 9 -82311067.446 8
  24574426.654    24574428.169    14017553.220 9 -39200937.326 9
 86  6 18  4 28 53.0800000  0  3G12G13G 7
  22073459.218    22073456.495    47743848.471 9 -59860670.768 7
  22470258.772    22470261.418    75685551.855 9 -82303478.776 9
  24574517.817    24574520.549    14018036.445 9 -39200560.791 9
 86  6 18  4 28 59.0800000  0  3G12G13G 7
  22076665.847    22076664.516    47760699.084 9 -59847540.424 6
  22472112.671    22472114.914    75695291.641 9 -82295889.310 8
                  24574616.907                   -39200160.169 8
 86  6 18  4 29  5.0800000  0  3G12G13G 7
  22079875.227    22079873.539    47777565.220 9 -59834397.977 8
  22473965.941    22473967.983    75705032.441 9 -82288299.077 8
  24574719.432    24574723.824    13982096.467 9 -39199730.901 9
 86  6 18  4 29 11.0800000  0  3G12G13G 7
  22083088.417    22083086.855    47794447.008 9 -59821243.315 8
  22475819.441    22475821.239    75714774.442 9 -82280707.903 8
  24574831.801    24574834.198    13982684.811 9 -39199272.453 8
 86  6 18  4 29 17.0800000  0  3G12G13G 7
  22086303.374    22086302.188    47811344.308 9 -59808076.601 7
  22477673.339    22477675.638    75724517.590 9 -82273115.836 8
  24574949.979    24574953.064    13983306.726 9 -39198787.843 9
 86  6 18  4 29 23.0800000  0  3G12G13G 7
  22089521.258    22089520.428    47828256.969 9 -59794897.901 7
  22479528.037    22479529.852    75734261.665 9 -82265523.038 8
  24575073.855    24575076.744    13983957.479 9 -39198280.766 9
 86  6 18  4 29 29.0800000  0  3G12G13G 7
  22092742.723    22092741.274    47845185.119 9 -59781707.148 7
  22481383.940    22481384.466    75744006.724 8 -82257929.489 8
  24575202.193    24575205.582    13984633.247 9 -39197754.194 9
 86  6 18  4 29 35.0800000  0  3G12G13G 7
  22095966.875    22095965.773    47862128.722 9 -59768504.336 7
  22483239.041    22483238.580    75753752.804 9 -82250335.130 8
  24575334.561    24575337.801    13985331.700 9 -39197209.945 9
 86  6 18  4 29 41.0800000  0  3G12G13G 7
  22099194.603    22099192.780    47879087.644 9 -59755289.599 8
  22485093.768    22485093.324    75763499.897 9 -82242740.001 8
  24575471.626    24575474.753    13986050.815 9 -39196649.602 8
 86  6 18  4 29 47.0800000  0  3G12G13G 7
  22102424.045    22102423.069    47896061.986 9 -59742062.845 7
  22486948.928    22486948.753    75773248.166 9 -82235143.933 7
  24575612.678    24575614.266    13986790.500 9 -39196073.210 9
 86  6 18  4 29 53.0800000  0  3G12G13G 7
  22105656.606    22105655.226    47913051.725 9 -59728824.100 7
  22488803.600    22488804.024    75782997.497 8 -82227547.049 8
  24575757.987    24575760.728    13987554.329 9 -39195478.023 8
 86  6 18  4 29 59.0800000  0  3G12G13G 7
  22108893.153    22108892.446    47930056.713 9 -59715573.462 7
  22490658.473    22490658.882    75792747.813 9 -82219949.404 8
                  24575911.782                   -39194858.385 9
 86  6 18  4 30  5.0800000  0  3G12G13G 7
  22112132.255    22112130.747    47947076.907 9 -59702310.985 8
  22492514.461    22492514.557    75802499.128 9 -82212350.972 9
  24576067.243    24576070.506    13951894.576 9 -39194210.033 9
 86  6 18  4 30 11.0800000  0  3G12G13G 7
  22115374.129    22115372.991    47964112.416 9 -59689036.575 9
  22494370.077    22494369.157    75812251.602 9 -82204751.646 9
  24576232.335    24576235.834    13952763.876 9 -39193532.663 8
 86  6 18  4 30 17.0800000  0  3G12G13G 7
  22118618.122    22118617.283    47981163.167 9 -59675750.272 8
  22496226.663    22496226.446    75822005.080 9 -82197151.527 8
  24576404.353    24576407.137    13953666.499 9 -39192829.309 9
 86  6 18  4 30 23.0800000  0  3G12G13G 7
  22121865.094    22121866.271    47998229.128 9 -59662452.127 8
  22498082.222    22498082.877    75831759.586 9 -82189550.622 8
  24576581.585    24576584.305    13954597.735 9 -39192103.677 8
 86  6 18  4 30 29.0800000  0  3G12G13G 7
  22125115.848    22125116.377    48015310.355 9 -59649142.082 8
  22499938.869    22499938.380    75841515.172 9 -82181948.851 8
  24576763.533    24576766.439    13955553.780 9 -39191358.702 9
 86  6 18  4 30 35.0800000  0  3G12G13G 7
  22128368.536    22128370.079    48032406.797 9 -59635820.183 8
  22501795.402    22501794.827    75851271.779 9 -82174346.297 8
  24576949.705    24576952.430    13956532.282 9 -39190596.236 9
 86  6 18  4 30 41.0800000  0  3G12G13G 7
  22131625.553    22131626.375    48049518.294 9 -59622486.545 8
  22503651.762    22503652.289    75861029.356 9 -82166743.000 8
  24577139.945    24577142.177    13957531.269 9 -39189817.803 8
 86  6 18  4 30 47.0800000  0  3G12G13G 7
  22134884.672    22134884.662    48066644.927 9 -59609141.124 8
  22505508.636    22505510.121    75870787.972 8 -82159138.867 8
  24577334.149    24577336.159    13958551.034 9 -39189023.181 8
 86  6 18  4 30 53.0800000  0  3G12G13G 7
  22138146.673    22138148.219    48083786.646 9 -59595783.943 8
  22507366.427    22507366.141    75880547.710 9 -82151533.882 8
                  24577535.435                   -39188209.343 9
 86  6 18  4 30 59.0800000  0  3G12G13G 7
  22141410.940    22141413.740    48100943.351 9 -59582415.083 8
  22509223.731    22509224.086    75890308.484 9 -82143928.090 8
  24577791.711    24577740.427    13923101.609 9 -39187371.108 8
 86  6 18  4 31  5.0800000  0  3G12G13G 7
  22144678.472    22144680.745    48118114.979 9 -59569034.597 8
  22511080.723    22511081.577    75900070.186 9 -82136321.570 8
  24577950.064    24577952.082    13924214.108 9 -39186503.913 9
 86  6 18  4 31 11.0800000  0  3G12G13G 7
  22147948.891    22147951.228    48135301.676 9 -59555642.371 9
  22512938.399    22512939.456    75909833.010 8 -82128714.169 8
  24578168.873    24578171.304    13925364.118 9 -39185607.794 8
 86  6 18  4 31 17.0800000  0  3G12G13G 7
  22151222.156    22151225.392    48152503.334 9 -59542238.480 9
  22514796.076    22514797.960    75919596.900 9 -82121105.942 8
  24578394.254    24578395.566    13926547.207 9 -39184685.906 8
 86  6 18  4 31 23.0800000  0  3G12G13G 7
  22154497.984    22154501.271    48169719.827 9 -59528823.036 8
  22516653.982    22516656.639    75929361.767 9 -82113496.964 8
  24578624.804    24578625.792    13927758.508 9 -39183742.038 8
 86  6 18  4 31 29.0800000  0  3G12G13G 7
  22157776.845    22157780.089    48186951.273 9 -59515395.931 8
  22518512.057    22518513.500    75939127.691 9 -82105887.159 9
  24578860.011    24578861.606    13928994.594 9 -39182778.847 9
 86  6 18  4 31 35.0800000  0  3G12G13G 7
  22161058.818    22161063.180    48204197.794 9 -59501957.091 8
  22520370.822    22520373.037    75948894.856 9 -82098276.362 8
  24579098.761    24579100.314    13930252.991 9 -39181798.290 8
 86  6 18  4 31 41.0800000  0  3G12G13G 7
  22164343.657    22164347.751    48221459.121 9 -59488506.704 8
  22522228.754    22522231.698    75958663.081 8 -82090664.774 8
  24579342.860    24579344.114    13931531.825 9 -39180801.798 8
 86  6 18  4 31 47.0800000  0  3G12G13G 7
  22167631.386    22167634.955    48238735.205 9 -59475044.829 9
  22524088.377    22524090.834    75968432.252 8 -82083052.436 8
  24579590.116    24579591.947    13932831.328 9 -39179789.187 8
 86  6 18  4 31 53.0800000  0  3G12G13G 7
  22170921.339    22170925.039    48256026.216 9 -59461571.319 8
  22525947.084    22525951.204    75978202.461 9 -82075439.283 9
  24579842.179    24579843.743    13934155.761 9 -39178757.175 8
